TimeCDT,TemperatureF,Dew PointF,Humidity,Sea Level PressureIn,VisibilityMPH,Wind Direction,Wind SpeedMPH,Gust SpeedMPH,PrecipitationIn,Events,Conditions,WindDirDegrees,DateUTC
12:14 AM,48.2,44.6,87,29.77,10.0,NNW,6.9,-,N/A,,Overcast,330,2013-10-06 05:14:00
12:33 AM,48.2,44.6,87,29.77,10.0,NW,6.9,-,N/A,,Overcast,320,2013-10-06 05:33:00
12:54 AM,48.2,44.6,87,29.77,10.0,NNW,6.9,-,N/A,,Overcast,340,2013-10-06 05:54:00
1:13 AM,48.2,44.6,87,29.76,10.0,NW,5.8,-,N/A,,Overcast,320,2013-10-06 06:13:00
1:34 AM,48.2,44.6,87,29.76,10.0,NW,9.2,-,N/A,,Overcast,310,2013-10-06 06:34:00
1:53 AM,48.2,44.6,87,29.76,10.0,NW,11.5,-,N/A,,Overcast,320,2013-10-06 06:53:00
2:13 AM,48.2,44.6,87,29.76,10.0,NNW,8.1,-,N/A,,Overcast,340,2013-10-06 07:13:00
2:34 AM,48.2,46.4,93,29.75,10.0,NNW,9.2,-,N/A,,Overcast,330,2013-10-06 07:34:00
2:54 AM,50.0,46.4,87,29.75,10.0,NNW,6.9,-,N/A,,Overcast,340,2013-10-06 07:54:00
3:13 AM,50.0,46.4,87,29.75,10.0,NW,10.4,-,N/A,,Overcast,320,2013-10-06 08:13:00
3:34 AM,50.0,46.4,87,29.74,7.0,NW,9.2,-,N/A,,Overcast,310,2013-10-06 08:34:00
3:53 AM,50.0,46.4,87,29.74,10.0,NW,13.8,-,N/A,Rain,Light Rain,320,2013-10-06 08:53:00
4:13 AM,50.0,46.4,87,29.74,10.0,NNW,11.5,-,N/A,Rain,Light Rain,330,2013-10-06 09:13:00
4:33 AM,48.2,46.4,93,29.74,10.0,NW,10.4,-,0.01,Rain,Light Rain,320,2013-10-06 09:33:00
4:53 AM,48.2,46.4,93,29.74,10.0,NNW,13.8,18.4,0.01,,Overcast,330,2013-10-06 09:53:00
5:13 AM,48.2,46.4,93,29.74,10.0,NNW,16.1,-,N/A,,Overcast,330,2013-10-06 10:13:00
5:33 AM,48.2,46.4,93,29.74,7.0,NNW,16.1,20.7,N/A,,Overcast,330,2013-10-06 10:33:00
5:53 AM,48.2,44.6,87,29.75,10.0,NNW,16.1,21.9,N/A,,Overcast,330,2013-10-06 10:53:00
6:13 AM,46.4,44.6,93,29.75,10.0,NNW,17.3,21.9,N/A,,Overcast,330,2013-10-06 11:13:00
6:33 AM,46.4,44.6,93,29.76,7.0,NNW,17.3,21.9,N/A,,Overcast,340,2013-10-06 11:33:00
6:54 AM,46.4,44.6,93,29.76,7.0,NNW,16.1,23.0,N/A,Rain,Light Rain,330,2013-10-06 11:54:00
7:13 AM,46.4,44.6,93,29.77,7.0,NNW,15.0,24.2,N/A,,Overcast,330,2013-10-06 12:13:00
7:33 AM,46.4,44.6,93,29.78,10.0,NNW,16.1,28.8,N/A,,Overcast,340,2013-10-06 12:33:00
7:53 AM,46.4,44.6,93,29.78,10.0,NNW,19.6,25.3,N/A,,Overcast,340,2013-10-06 12:53:00
8:13 AM,46.4,44.6,93,29.78,7.0,NNW,18.4,25.3,N/A,,Overcast,340,2013-10-06 13:13:00
8:33 AM,46.4,44.6,93,29.78,7.0,NNW,15.0,25.3,N/A,,Overcast,340,2013-10-06 13:33:00
8:55 AM,46.4,44.6,93,29.78,10.0,NNW,16.1,21.9,N/A,,Drizzle,340,2013-10-06 13:55:00
9:13 AM,46.4,44.6,93,29.79,7.0,NNW,13.8,24.2,0.01,Rain,Light Rain,330,2013-10-06 14:13:00
9:34 AM,46.4,44.6,93,29.79,10.0,NNW,17.3,25.3,0.01,Rain,Light Rain,340,2013-10-06 14:34:00
9:54 AM,46.4,44.6,93,29.80,10.0,NNW,13.8,25.3,0.02,Rain,Light Rain,340,2013-10-06 14:54:00
10:13 AM,46.4,44.6,93,29.81,10.0,NNW,17.3,24.2,0.02,Rain,Light Rain,340,2013-10-06 15:13:00
10:33 AM,46.4,44.6,93,29.81,10.0,NNW,15.0,21.9,0.02,Rain,Light Rain,340,2013-10-06 15:33:00
10:53 AM,46.4,44.6,93,29.82,10.0,NNW,18.4,-,0.02,,Overcast,340,2013-10-06 15:53:00
11:13 AM,46.4,44.6,93,29.82,10.0,NNW,17.3,26.5,N/A,,Overcast,340,2013-10-06 16:13:00
11:33 AM,46.4,44.6,93,29.83,10.0,NNW,17.3,25.3,N/A,,Overcast,340,2013-10-06 16:33:00
11:53 AM,46.4,42.8,87,29.83,10.0,NNW,21.9,27.6,N/A,,Overcast,340,2013-10-06 16:53:00
12:13 PM,46.4,42.8,87,29.84,10.0,NNW,15.0,20.7,N/A,,Overcast,330,2013-10-06 17:13:00
12:34 PM,46.4,42.8,87,29.84,10.0,NNW,16.1,21.9,N/A,,Overcast,340,2013-10-06 17:34:00
12:53 PM,46.4,42.8,87,29.84,10.0,NNW,17.3,25.3,N/A,,Overcast,340,2013-10-06 17:53:00
1:14 PM,46.4,44.6,93,29.84,10.0,NNW,19.6,25.3,N/A,,Overcast,340,2013-10-06 18:14:00
1:34 PM,48.2,44.6,87,29.84,10.0,NNW,15.0,25.3,N/A,,Overcast,330,2013-10-06 18:34:00
1:53 PM,48.2,44.6,87,29.83,10.0,NNW,20.7,27.6,N/A,,Overcast,340,2013-10-06 18:53:00
2:13 PM,50.0,44.6,82,29.83,10.0,NNW,23.0,27.6,N/A,,Overcast,340,2013-10-06 19:13:00
2:33 PM,51.8,44.6,76,29.83,10.0,NNW,19.6,27.6,N/A,,Overcast,330,2013-10-06 19:33:00
2:54 PM,53.6,44.6,72,29.82,10.0,North,23.0,29.9,N/A,,Mostly Cloudy,350,2013-10-06 19:54:00
3:13 PM,55.4,44.6,67,29.83,10.0,NNW,19.6,28.8,N/A,,Scattered Clouds,340,2013-10-06 20:13:00
3:33 PM,57.2,42.8,59,29.82,10.0,NNW,21.9,27.6,N/A,,Clear,340,2013-10-06 20:33:00
3:53 PM,59.0,41.0,51,29.82,10.0,NW,19.6,27.6,N/A,,Clear,320,2013-10-06 20:53:00
4:13 PM,57.2,37.4,48,29.83,10.0,NNW,21.9,29.9,N/A,,Clear,330,2013-10-06 21:13:00
4:33 PM,59.0,37.4,45,29.83,10.0,NNW,18.4,27.6,N/A,,Clear,330,2013-10-06 21:33:00
4:53 PM,59.0,35.6,42,29.84,10.0,NNW,20.7,26.5,N/A,,Clear,340,2013-10-06 21:53:00
5:13 PM,59.0,33.8,39,29.85,10.0,NNW,16.1,26.5,N/A,,Clear,330,2013-10-06 22:13:00
5:33 PM,59.0,33.8,39,29.86,10.0,NNW,19.6,24.2,N/A,,Clear,330,2013-10-06 22:33:00
5:53 PM,57.2,33.8,41,29.86,10.0,NNW,18.4,24.2,N/A,,Clear,330,2013-10-06 22:53:00
6:13 PM,57.2,35.6,44,29.88,10.0,NNW,10.4,-,N/A,,Clear,330,2013-10-06 23:13:00
6:34 PM,55.4,35.6,47,29.88,10.0,NW,6.9,-,N/A,,Clear,320,2013-10-06 23:34:00
6:54 PM,53.6,37.4,54,29.88,10.0,NW,6.9,-,N/A,,Clear,320,2013-10-06 23:54:00
7:14 PM,51.8,37.4,58,29.89,10.0,NW,5.8,-,N/A,,Clear,310,2013-10-07 00:14:00
7:34 PM,48.2,37.4,66,29.90,10.0,WNW,4.6,-,N/A,,Clear,300,2013-10-07 00:34:00
7:53 PM,46.4,37.4,71,29.89,10.0,West,5.8,-,N/A,,Clear,280,2013-10-07 00:53:00
8:13 PM,44.6,37.4,76,29.89,10.0,West,5.8,-,N/A,,Clear,270,2013-10-07 01:13:00
8:33 PM,44.6,37.4,76,29.89,10.0,West,4.6,-,N/A,,Clear,260,2013-10-07 01:33:00
8:53 PM,44.6,37.4,76,29.89,10.0,West,3.5,-,N/A,,Clear,260,2013-10-07 01:53:00
9:13 PM,44.6,37.4,76,29.89,10.0,WSW,6.9,-,N/A,,Clear,250,2013-10-07 02:13:00
9:33 PM,42.8,37.4,81,29.89,10.0,West,5.8,-,N/A,,Clear,270,2013-10-07 02:33:00
9:53 PM,42.8,39.2,87,29.90,10.0,WSW,6.9,-,N/A,,Clear,250,2013-10-07 02:53:00
10:13 PM,42.8,39.2,87,29.89,10.0,WSW,5.8,-,N/A,,Clear,250,2013-10-07 03:13:00
10:33 PM,42.8,39.2,87,29.90,10.0,WSW,4.6,-,N/A,,Clear,240,2013-10-07 03:33:00
10:53 PM,44.6,39.2,81,29.89,10.0,WSW,5.8,-,N/A,,Clear,240,2013-10-07 03:53:00
11:13 PM,42.8,39.2,87,29.89,10.0,SW,5.8,-,N/A,,Clear,230,2013-10-07 04:13:00
11:33 PM,44.6,39.2,81,29.89,10.0,WSW,4.6,-,N/A,,Clear,240,2013-10-07 04:33:00
11:53 PM,42.8,39.2,87,29.88,10.0,WSW,5.8,-,N/A,,Clear,240,2013-10-07 04:53:00